Regional Weather Roundup
Issued by NWS Grand Forks, ND

Home | Current Version | Previous Version | Graphics & Text | Print | Product List | Glossary On
Versions: 1 2 3 4 5 6 7 8 9 10 11 12 13 14 15 16 17 18 19 20 21 22 23 24 25 26 27 28 29 30 31 32 33 34 35 36 37 38 39 40 41 42 43 44 45 46 47 48 49 50
000
ASUS43 KFGF 282031
RWRFGF
PRAIRIE TO PINES  WEATHER ROUNDUP
NATIONAL WEATHER SERVICE EASTERN NORTH DAKOTA/GRAND FORKS ND
300 PM CDT SAT MAR 28 2015

 **SATELLITE DATA USED TO AUGMENT SKY COVER AT AUTOMATED STATIONS**
 *****  WEATHER ACROSS EASTERN NORTH DAKOTA  *****

CITY           SKY/WX    TMP DP  RH WIND       PRES   REMARKS
GRAND FORKS    PTSUNNY   48  30  49 S25G36    29.86F
GRAND FRKS AFB MOSUNNY   47  30  52 SW25G33   29.84F
GRAND FRKS NWS   N/A     46 N/A N/A S31         N/A
DEVILS LAKE    MOSUNNY   43  36  75 S22G28    29.73F
FARGO          SUNNY     49  26  41 S28G35    29.92F
WAHPETON ARPT  CLEAR     46  27  46 S28G35    29.94F
$$

 ***** WEATHER ACROSS CENTRAL AND WESTERN NORTH DAKOTA  *****

CITY           SKY/WX    TMP DP  RH WIND       PRES   REMARKS
BISMARCK       SUNNY     60  35  39 S22       29.71F
MINOT          SUNNY     59  38  45 S18G29    29.57F
JAMESTOWN      SUNNY     50  36  58 S25G36    29.79F
MINOT AFB      SUNNY     59  46  61 S24       29.55F
GARRISON         N/A     62  40  44 S21       29.60F
WILLISTON      PTSUNNY   74  37  26 SW9       29.49F
DICKINSON      SUNNY     77  33  20 S24G32    29.57F
HETTINGER      SUNNY     75  33  21 S16G28    29.66F
$$

 *****  OTHER AIRPORT OBSERVATIONS IN OUR AREA  *****

CITY           SKY/WX    TMP DP  RH WIND       PRES   REMARKS
WALHALLA         N/A     45  37  76 S23G30    29.74F
GRAFTON AIRPOR NOT AVBL
VALLEY CITY AR FAIR      48  36  61 S24G36    29.83F
CANDO          FAIR      45  37  76 S22G28    29.70F
CAVALIER APRT  MOCLDY    43  36  75 S24G30    29.77F
GWINNER        CLEAR     50  32  50 S21G30      N/A
ROLLA          FAIR      46  45  93 S25G35    29.64F
 ***** THE ABOVE OBSERVATIONS ARE NON NWS ARE NOT QUALITY
       CONTROLLED AND MAY MIS-REPORT RAIN FOR SNOW...
$$

  *****  WEATHER ACROSS NORTHERN MINNESOTA  *****

CITY           SKY/WX    TMP DP  RH WIND       PRES   REMARKS
FLAG ISLAND    MOSUNNY   36  27  69 S16       29.87F
WARROAD        SUNNY     46  28  49 S15G28    29.88F
ROSEAU         SUNNY     45  28  53 S23G30    29.87F
HALLOCK        SUNNY     48  30  49 S30G37    29.80F
THF RVR FALLS  MOSUNNY   45  27  49 S24G31    29.89F
BAUDETTE       PTSUNNY   41  20  43 S20G29    29.91F
WASKISH        MOSUNNY   45  19  36 CALM      29.93F
CROOKSTON      SUNNY     48  27  43 S24G37    29.89F
STEPHEN NDAWN    N/A     46  30  53 S26         N/A
GREENBUSH NDAW   N/A     45  32  61 S25         N/A
$$
  *****  WEATHER ACROSS CENTRAL AND WEST MINNESOTA  *****

CITY           SKY/WX    TMP DP  RH WIND       PRES   REMARKS
FOSSTON        SUNNY     45  25  45 S25G32    29.93F
BEMIDJI        SUNNY     45  22  41 S20G25    29.94F
PARK RAPIDS    MOSUNNY   47  22  37 S21G28    29.98F
ELBOW LAKE     MOCLDY    44  28  54 S26G32    29.99F
WADENA         SUNNY     43  25  49 S20       29.99F
DETROIT LAKES  MOSUNNY   43  27  52 S25G31    29.95F
MOORHEAD       SUNNY     46  27  46 S24G30    29.93F
FERGUS FALLS   MOSUNNY   45  23  42 S24G31    30.00F
MORRIS MN      MOSUNNY   45  32  61 S22G29    29.99F
STAPLES        SUNNY     43  21  42 S24G30    30.02F
$$
  *****  WEATHER ELSEWHERE ACROSS MINNESOTA  *****

CITY           SKY/WX    TMP DP  RH WIND       PRES   REMARKS
DULUTH         SUNNY     42   9  25 SW15      30.06F
INTRNTL FALLS  MOSUNNY   43  11  27 S14G24    29.96F
ELY            SUNNY     41   3  20 S15G21    30.01F
CLOQUET        SUNNY     43  -2  15 S15       30.06F
WHEATON        SUNNY     45  28  53 S22G32    29.97F
BRAINERD       SUNNY     43  18  36 S20G25    30.05F
HIBBING        SUNNY     43   5  20 S10G18    30.02F
ALEXANDRIA     PTSUNNY   40  25  55 S22G32    30.04F
SAINT CLOUD    SUNNY     41  16  36 S20G28    30.10F
MINNEAPOLIS    MOSUNNY   40  15  36 S14G24    30.18F
$$

  *****  WEATHER ACROSS SOUTH DAKOTA  *****

CITY           SKY/WX    TMP DP  RH WIND       PRES   REMARKS
SIOUX FALLS    SUNNY     50  26  39 S20G28    30.02F
BROOKINGS      NOT AVBL
WATERTOWN      SUNNY     50  27  40 S21G31    29.95F
HURON          SUNNY     53  29  39 S15G29    29.93F
SISSETON         N/A     49  33  54 S23G30    29.94F
ABERDEEN       SUNNY     54  31  41 S24G30    29.90F
MITCHELL       SUNNY     54  30  40 S22G33    29.97F
PIERRE         SUNNY     68  36  30 S23G29    29.79F
MOBRIDGE       SUNNY     62  34  35 S23       29.75F
RAPID CITY     SUNNY     80  33  18 SE18G29   29.68F
$$

  *****  SOME WEATHER IN NEARBY STATES *****

CITY           SKY/WX    TMP DP  RH WIND       PRES   REMARKS
GLASGOW MT     PTSUNNY   67  36  31 W23G33    29.52R
GREAT FALLS MT MOSUNNY   55  21  26 W46G53    29.81F
CHEYENNE WY    SUNNY     72  20  14 W15G22    29.99F
SCOTTSBLUFF NE SUNNY     80  26  13 NW17G26   29.85F
OMAHA NE       MOSUNNY   51  28  41 SE15      30.10F
DES MOINES IA  MOSUNNY   49  15  25 S13       30.19F
DAVENPORT IA   SUNNY     39   9  29 S9        30.29F
CHICAGO IL     SUNNY     34   6  31 VRB3      30.31F
EAU CLAIRE WI  SUNNY     42   9  25 S13       30.18F
LA CROSSE WI   SUNNY     42  11  28 S14       30.24F
$$

  *****  SOME NATIONAL WEATHER *****

CITY           SKY/WX    TMP DP  RH WIND       PRES   REMARKS
LA GUARDIA NY  PTSUNNY   37  24  59 N12       29.84S
RALEIGH NC     MOSUNNY   45  13  27 VRB6G16   30.04F
ATLANTA GA     PTSUNNY   52  13  21 N16G22    30.13S
NEW ORLEANS LA MOSUNNY   68  43  40 SW3       30.19F
OKLAHOMA CITY  SUNNY     76  44  32 CALM      29.98F
ALBUQUERQUE NM SUNNY     75  21  13 NW5       30.18F
SALT LAKE CITY PTSUNNY   73  28  18 NW8       30.11F
LOS ANGELES CA MOSUNNY   68  59  73 W10       30.07F
BOISE ID       SUNNY     57  30  35 NW16G22   30.29F
SEATTLE WA     CLOUDY    57  44  62 SW15G21   30.31F
$$

*** WEATHER ACROSS MANITOBA...SASKATCHEWAN AND ONTARIO ***
                ***ONTARIO***

CITY           SKY/WX    TMP DP  RH WIND       PRES   REMARKS
GERALDTON      PTSUNNY   36   5  27 SW15G22   30.00F
THUNDER BAY    MOSUNNY   39  12  33 S14G24    30.07F
SIOUX LOOKOUT  PTSUNNY   39  10  30 SW17      29.90F
TORONTO        SUNNY     28  -2  26 N20       30.16S WCI  15
BIG TROUT LK   SUNNY     37  21  52 SW12G17   29.69F
PICKLE LAKE    PTSUNNY   37  10  32 SW18G33   29.84F
DRYDEN         SUNNY     39  12  33 S21G31    29.90F
KENORA         PTSUNNY   39  18  41 SW18G33   29.87F
$$
                *** MANITOBA***

CITY           SKY/WX    TMP DP  RH WIND       PRES   REMARKS
BRANDON        PTSUNNY   41  36  81 SE16      29.61F
DAUPHIN        SUNNY     45  36  70 VRB15     29.47F
ISLAND LAKE    CLOUDY    37  25  60 SW13G22   29.61F
PILOT MOUND      N/A     37  36  93 S26G36      N/A
THE PAS        MOSUNNY   41  32  70 SE3       29.44F
THOMPSON       LGT SNOW  32  30  93 S9        29.48F WCI  24
WINNIPEG       PTSUNNY   43  32  65 S31G40    29.76F
LYNN LAKE      CLOUDY    37  34  87 W6        29.43S
CHURCHILL      PTSUNNY   37  28  70 W14       29.37F
GILLAM         SNOW      32  28  86 SW10      29.50F VSB 1/4 WCI  24
$$
                ***SASKATCHEWAN***

CITY           SKY/WX    TMP DP  RH WIND       PRES   REMARKS
ESTEVAN        PTSUNNY   68  43  40 S20G26    29.48
KINDERSLEY     LGT RAIN  43  39  87 N17       29.57R
LLOYDMINSTER   PTSUNNY   45  39  81 NW13      29.62R
PRINCE ALBERT  CLOUDY    41  36  81 NW12G18   29.47R
REGINA         CLOUDY    55  48  76 S5        29.44F
YORKTON        SUNNY     43  36  75 S14       29.43F
N. BATTLEFORD  CLOUDY    41  37  87 NW17G24   29.57R
LA RONGE       PTSUNNY   41  36  81 N7        29.51R
SASKATOON      CLOUDY    46  37  71 N15       29.49R
SWIFT CURRENT  LGT RAIN  50  46  87 W15G22    29.49S
$$
NOTE: THESE ARE AUTOMATED STATIONS WITH LIMITED QUALITY CONTROL
      "FAIR" INDICATES FEW OR NO CLOUDS BELOW 12,000 FEET WITH NO
      SIGNIFICANT WEATHER AND/OR OBSTRUCTIONS TO VISIBILITY.
      SKY/WX - SKY CONDITION AND SIGNIFICANT WEATHER.
      TMP - AIR TEMPERATURE.    DP   - DEWPOINT TEMPERATURE.
      RH  - RELATIVE HUMIDITY.  PRES - PRESSURE.
      HX  - HEAT INDEX.         WCI  - WIND CHILL INDEX.
$



USA.gov is the U.S. government's official web portal to all federal, state and local government web resources and services.